Location: La Trinit�
(48.1620°N, 3.4512°W)
Time: 03:34:16
(UTC+00:00)

USA 245 - Pass Details

Date: 08 May 2021
Orbit: 265 x 982 km, 97.9° (Epoch: 08 June)

Event Time Altitude Azimuth Distance (km) Brightness Sun altitude
Exits shadow 22:03:11 15° 256° (WSW) 885 4.6 -18.6°
Maximum altitude 22:03:24 15° 263° (W) 877 4.7 -18.6°
Drops below altitude 10° 22:04:48 10° 302° (WNW) 1,084 5.8 -18.8°
Sets 22:07:03 0° 329° (NNW) 1,899 7.8 -19.0°
